Location: ???? ????
(31.2831°N, 45.5190°E)
Time: 07:01:42
(UTC+00:00)

Cosmos 1295 Rocket - Pass Details

Date: 24 February 2021
Orbit: 943 x 994 km, 82.9° (Epoch: 15 April)

Event Time Altitude Azimuth Distance (km) Brightness Sun altitude
Rises 16:32:36 0° 182° (S) 3,692 7.5 -22.1°
Reaches altitude 10° 16:35:07 10° 181° (S) 2,743 6.8 -22.7°
Maximum altitude 16:41:25 83° 95° (E) 996 4.4 -24.0°
Drops below altitude 10° 16:47:42 10° 8° (N) 2,731 6.8 -25.4°
Sets 16:50:12 0° 7° (N) 3,674 7.5 -25.9°
